Location: Garshuizen
(53.3675°N, 6.7248°E)
Time: 05:36:27
(UTC+00:00)

CZ-4B R/B - Pass Details

Date: 15 May 2026
Orbit: 700 x 797 km, 98.9° (Epoch: 6 June)

Event Time Altitude Azimuth Distance (km) Brightness Sun altitude
Exits shadow 21:23:16 12° 185° (S) 2,022 5.2 -12.6°
Maximum altitude 21:27:29 50° 259° (W) 909 4.0 -13.0°
Drops below altitude 10° 21:32:15 10° 336° (NNW) 2,234 7.4 -13.3°
Sets 21:34:38 0° 341° (NNW) 3,175 8.6 -13.5°
